Theta_e
331 330 326 321 319 318 318 322 320 317 317 315 314 315 315 315 316 319 319 319 318 316 315 315 313 312 311 310 310 309 316 316
329 324 318 316 319 323 323 321 319 316 317 316 314 315 316 315 315 318 319 318 319 318 316 314 313 312 311 310 309 309 312 313
321 317 315 322 323 321 321 320 319 321 317 314 314 317 317 316 316 317 318 319 317 316 314 312 311 311 310 309 308 308 309 312
318 317 316 315 316 317 317 319 313 314 314 314 315 316 316 316 318 319 320 320 316 314 312 310 310 309 308 308 307 307 308 310
319 319 317 314 314 315 316 311 315 315 314 315 315 316 316 317 320 321 320 317 314 312 310 310 309 308 308 307 306 306 306 307
317 317 316 317 317 317 315 317 317 315 316 317 316 316 318 322 321 318 316 314 312 311 311 309 309 308 307 307 306 305 305 305
319 319 319 319 319 322 316 317 314 316 322 323 323 321 321 321 316 314 314 313 312 311 310 309 308 308 307 307 305 304 304 303
321 323 323 322 325 321 314 316 316 320 323 324 324 324 322 318 316 315 314 312 311 310 309 309 308 307 306 305 303 303 303 302
323 323 324 327 326 319 314 317 319 322 324 326 325 323 321 319 316 315 312 311 310 309 309 308 307 306 304 303 303 302 301 300
323 323 325 328 327 318 316 320 323 326 326 326 324 322 321 317 315 313 311 310 309 309 308 307 306 304 303 301 300 299 299 298
324 323 323 329 326 319 318 322 327 328 326 325 324 320 317 316 315 312 310 309 309 308 308 305 305 303 301 299 298 297 297 297
325 325 326 328 326 320 321 325 328 327 327 326 323 319 317 314 312 310 309 308 308 307 303 302 303 302 300 298 297 296 295 296
326 326 326 328 326 322 323 325 328 327 326 324 322 319 315 312 310 309 309 308 305 303 302 302 301 300 300 299 297 296 295 294
327 327 327 328 326 325 325 325 326 324 324 322 321 317 313 311 310 309 307 305 301 300 301 302 301 300 302 301 303 299 297 295
328 327 327 327 327 326 326 325 323 318 317 317 315 313 311 310 309 307 303 299 297 296 298 300 301 299 300 301 302 302 299 296
328 327 327 328 328 327 325 323 319 315 315 313 312 311 310 309 306 301 299 297 296 297 298 299 300 300 298 298 299 299 300 299
328 327 326 327 327 325 323 322 319 316 313 311 311 309 308 306 302 299 297 295 297 299 299 299 298 298 299 299 298 296 295 296
328 327 325 324 325 325 323 321 319 314 311 309 308 306 303 301 299 298 296 296 301 303 300 297 297 297 298 297 296 296 296 295
327 327 326 324 324 323 322 320 318 314 312 310 308 306 303 300 299 297 295 300 303 298 297 297 297 297 297 297 296 296 295 295
326 327 326 324 323 324 322 318 317 313 312 309 308 306 303 301 298 296 296 300 297 297 297 298 297 296 296 296 296 296 295 295
Wind_Speed
31 31 33 23 15 23 25 26 29 30 30 31 30 25 23 22 23 22 20 18 19 18 18 18 15 15 15 15 14 14 13 12
35 37 43 40 19 16 21 24 25 27 28 29 26 21 19 19 19 19 18 16 16 16 16 15 14 13 12 12 11 11 11 11
37 41 41 30 23 17 17 20 21 24 26 26 24 19 17 17 17 16 15 14 15 15 15 13 13 12 10 8 8 9 8 7
40 39 35 32 25 17 16 18 19 22 25 25 22 17 16 14 14 13 12 13 15 15 13 12 10 10 10 9 11 9 7 7
32 33 33 31 32 26 24 20 21 23 23 21 19 16 15 15 13 12 13 15 15 13 12 10 10 10 9 10 10 10 8 7
36 44 45 36 39 23 20 22 23 22 19 17 16 16 14 14 15 17 16 14 14 11 10 9 8 9 8 7 8 8 7 7
27 33 33 32 25 17 20 22 21 20 19 17 15 15 14 15 17 17 15 13 10 9 8 7 6 5 5 5 6 6 6 6
28 20 22 21 16 16 17 18 19 18 17 15 13 13 15 16 17 15 13 11 10 8 7 6 6 5 4 3 4 5 8 8
24 22 19 16 14 14 16 18 17 17 16 13 13 15 16 16 16 14 12 11 8 8 7 5 5 4 4 4 3 3 4 4
21 20 19 16 16 14 16 18 16 16 16 14 16 16 16 16 15 14 12 10 8 7 6 4 2 3 5 4 4 4 5 5
21 21 18 15 16 17 18 17 15 13 17 18 17 16 17 16 15 14 12 10 9 6 4 3 4 4 4 5 5 5 5 5
21 23 21 18 19 19 19 18 17 18 18 19 19 19 19 17 14 14 12 10 7 6 4 5 5 5 5 5 5 5 6 6
23 23 23 22 22 18 18 19 20 20 20 20 20 21 19 17 16 14 13 9 7 7 7 6 4 6 6 3 3 4 6 6
24 26 27 28 26 24 21 23 21 21 21 20 20 20 19 17 16 15 12 10 9 8 9 6 4 7 4 2 3 6 7 8
26 25 27 28 29 27 21 22 19 17 18 19 21 21 20 18 16 14 12 9 8 8 9 9 10 6 6 3 3 3 2 6
28 29 33 32 32 31 32 24 18 17 21 22 24 23 22 20 18 15 11 10 9 9 8 6 5 6 4 5 5 3 3 3
30 29 31 30 33 32 30 26 24 22 25 26 25 24 22 22 20 17 15 14 14 9 6 5 8 8 6 5 4 3 4 6
30 28 27 27 32 33 34 35 31 25 29 29 27 25 24 23 21 18 17 17 14 10 6 11 7 4 5 5 5 4 4 6
27 27 27 29 33 35 37 39 34 33 34 36 35 32 31 29 25 21 20 16 11 12 11 11 8 6 8 6 6 6 5 6
27 28 28 28 33 36 39 37 35 32 32 35 37 35 32 30 25 22 19 10 11 15 13 11 9 10 9 8 8 8 9 9
Wind_Direction
139 143 131 119 141 134 142 145 141 143 145 144 137 138 130 129 124 122 116 116 122 114 108 105 101 99 91 83 77 68 71 70
141 137 129 129 132 139 149 140 140 140 146 145 140 139 136 129 126 124 119 115 114 118 113 113 110 99 85 72 68 65 71 72
130 121 128 129 124 147 140 134 138 145 146 144 146 146 138 133 127 125 118 115 119 118 116 114 110 100 86 80 75 69 69 68
129 129 130 127 121 130 132 139 128 149 150 152 149 147 139 135 132 130 120 123 124 121 118 113 101 92 88 73 67 65 59 61
131 125 129 127 130 121 132 149 167 163 157 154 153 155 150 147 142 133 136 133 127 127 121 109 98 95 85 73 58 51 59 68
143 142 145 148 153 162 180 175 175 163 158 159 160 158 155 146 137 136 135 135 136 132 122 107 98 92 75 45 35 50 65 68
154 147 150 152 177 189 187 179 169 165 164 165 170 162 152 147 144 141 141 146 145 136 125 108 93 81 60 29 18 47 54 47
171 175 176 172 188 187 183 172 173 174 178 183 182 173 161 158 154 152 155 158 142 131 117 116 113 92 78 67 57 49 21 19
176 181 187 197 193 193 188 180 183 189 191 188 182 173 173 173 170 164 159 153 143 135 129 119 108 100 110 115 98 47 42 38
188 190 193 200 196 194 190 191 197 206 204 188 180 183 185 180 174 168 163 152 143 137 134 121 118 131 143 142 135 130 131 124
203 201 203 201 198 194 195 204 209 205 194 187 189 188 187 189 183 171 162 158 153 147 160 152 138 150 146 149 145 133 132 129
202 203 206 207 199 196 201 207 203 201 196 195 192 192 193 191 179 170 162 167 157 172 173 168 163 168 151 150 151 154 153 154
203 205 206 203 198 196 202 202 202 199 198 198 197 195 191 187 180 172 172 169 178 184 175 166 149 176 152 167 177 174 180 177
206 206 204 201 201 204 205 203 203 199 194 194 196 192 189 187 185 182 177 181 182 186 195 169 152 178 196 214 229 219 217 209
211 211 208 206 205 205 201 199 200 198 190 192 190 190 188 191 192 187 181 180 176 183 194 190 175 180 185 199 227 266 256 219
212 211 210 211 212 209 206 198 188 201 197 191 187 190 191 193 192 186 180 172 169 168 179 188 186 165 159 194 214 228 278 268
214 213 212 213 213 211 208 209 202 203 199 190 189 189 195 192 192 187 180 171 163 156 164 195 199 195 187 187 211 209 222 264
215 212 212 210 213 213 212 214 209 203 195 191 190 191 194 195 192 187 182 173 174 195 187 209 202 185 190 191 220 240 256 263
208 209 211 213 216 213 215 222 220 215 205 203 197 196 199 198 195 191 187 190 221 181 186 202 201 195 192 203 214 239 248 260
207 208 211 210 216 219 221 222 223 220 216 213 209 205 207 201 197 193 187 213 183 212 195 201 210 204 209 222 236 241 244 247